Regional Weather Roundup
Issued by NWS

Home | Current Version | Previous Version | Text Only | Print | Product List | Glossary On
Versions: 1 2 3 4 5 6 7 8 9 10 11 12 13 14 15 16 17 18 19 20 21 22 23 24 25 26 27 28 29 30 31 32 33 34 35 36 37 38 39 40 41 42 43 44 45 46 47 48 49 50
000
ASUS46 KPQR 262110
RWROR

OREGON REGIONAL WEATHER ROUNDUP
NATIONAL WEATHER SERVICE PORTLAND OR
100 PM PST WED NOV 26 2014

NOTE: "FAIR" INDICATES FEW OR NO CLOUDS BELOW 12,000 FEET WITH
NO SIGNIFICANT WEATHER AND/OR OBSTRUCTIONS TO VISIBILITY.

ORZ001>013-262200-
NORTHWEST OREGON


CITY           SKY/WX    TMP DP  RH WIND       PRES   REMARKS
ASTORIA        CLOUDY    54  52  93 N3        30.07F
NEWPORT        CLOUDY    61  54  77 S7        30.13F
PORTLAND       CLOUDY    60  53  77 NE3       30.12F
VANCOUVER WA   CLOUDY    62  50  64 CALM      30.11F
SCAPPOOSE      CLOUDY    60  52  74 CALM      30.10F
HILLSBORO      CLOUDY    59  53  80 W6        30.11F
AURORA         PTSUNNY   60  51  72 SW7       30.12F
MCMINNVILLE    CLOUDY    59  52  77 W5        30.12F HAZE
SALEM          PTSUNNY   62  49  62 S10       30.10F
CORVALLIS      PTSUNNY   57  52  82 S7        30.14S
EUGENE         CLOUDY    58  50  75 W6        30.14F
$$

ORZ021-028-262200-
SOUTHWEST OREGON


CITY           SKY/WX    TMP DP  RH WIND       PRES   REMARKS
NORTH BEND     PTSUNNY   59  57  94 CALM      30.12F
BROOKINGS      MOSUNNY   65  49  56 VRB6      30.17F
ROSEBURG       CLOUDY    57  48  72 CALM      30.16S
SEXTON SUMMIT  CLOUDY    53  35  50 S15G24    30.19F
MEDFORD        CLOUDY    49  45  86 CALM      30.22F
$$

ORZ014>016-041-262200-
COLUMBIA GORGE


CITY           SKY/WX    TMP DP  RH WIND       PRES   REMARKS
TROUTDALE      CLOUDY    62  51  67 NE6       30.10F
THE DALLES     MOSUNNY   62  46  55 CALM      30.12F
$$

ORZ029>031-041-044-049-050-061>064-502-503-505>511-262200-
EASTERN OREGON


CITY           SKY/WX    TMP DP  RH WIND       PRES   REMARKS
REDMOND        MOSUNNY   50  39  66 NE8       30.17F
BEND           MOSUNNY   55  36  47 SW13      30.18F
PRINEVILLE     MOSUNNY   48  39  71 E6        30.19F
KLAMATH FALLS  CLOUDY    44  38  79 CALM      30.28F
LAKEVIEW       MOSUNNY   52  37  58 S3        30.32F
HERMISTON      CLOUDY    61  45  55 N3        30.12F
PENDLETON      CLOUDY    62  44  51 NW9       30.12F
JOHN DAY       PTSUNNY   52  39  61 NE6       30.22F
MEACHAM        CLOUDY    54  39  57 CALM      30.17F
LA GRANDE      CLOUDY    55  36  47 S17G26    30.17F
BAKER CITY     CLOUDY    50  40  68 SW3       30.22F
BURNS          CLOUDY    47  37  68 CALM      30.26F
ROME             N/A     63  32  31 S8        30.24F
ONTARIO        PTSUNNY   53  40  61 N5        30.28F
$$


USA.gov is the U.S. government's official web portal to all federal, state and local government web resources and services.